[Date Prev][Date Next][Thread Prev][Thread Next] - [Date Index][Thread Index][Author Index]

2 Line ISS Keps 12-17



ISS 
1 25544U 98067A   04352.28417419  .00016888  00000-0  13392-3 0  3817
2 25544  51.6383 111.1293 0004452 114.8664 313.6504 15.71418642347084
----
Via the sarex mailing list at AMSAT.ORG courtesy of AMSAT-NA.
To unsubscribe, send "unsubscribe sarex" to Majordomo@amsat.org



AMSAT Top AMSAT Home